AAL735 EGLL-KCLT

Flight info

Callsign AAL735
Flight time N/A
Altitude 34000
Route CPT5J CPT L9 DIDZA N14 OKTAD DCT MEDOG DCT VATRY DCT TORLU DCT DOGAL/M082F340 DCT 54N020W 54N030W 5330N04000W 5230N05000W DCT SAXAN/N0471F340 N554A MIILS DCT KAYCC DCT KYLOH DCT NELIE Q75 GVE DCT AIROW CHSLY6
Aircraft B772/H-SDE2E3FGHIJ5LORVWXY/LB1D1

Departure

Time 2026-05-05 16:08
Airport London Heathrow Airport (EGLL)

Arrival

Time N/A
Airport Charlotte Douglas International Airport (KCLT)
Time Latitude Longitude Altitude Speed Heading
2026-05-05 15:29 51.47319 -0.46580 145 ft 0 kts 89°
2026-05-05 15:52 51.47319 -0.46604 94 ft 3 kts 90°
2026-05-05 15:52 51.47319 -0.46641 90 ft 3 kts 90°
2026-05-05 15:52 51.47319 -0.46676 90 ft 2 kts 90°
2026-05-05 15:52 51.47321 -0.46709 91 ft 3 kts 125°
2026-05-05 15:53 51.47337 -0.46726 90 ft 3 kts 176°
2026-05-05 15:53 51.47358 -0.46726 90 ft 1 kts 180°
2026-05-05 15:53 51.47363 -0.46726 90 ft 0 kts 180°
2026-05-05 15:57 51.47354 -0.46726 90 ft 4 kts 180°
2026-05-05 15:57 51.47309 -0.46726 94 ft 8 kts 180°
2026-05-05 15:57 51.47254 -0.46726 90 ft 8 kts 180°
2026-05-05 15:58 51.47199 -0.46725 90 ft 8 kts 180°
2026-05-05 15:58 51.47143 -0.46725 90 ft 8 kts 180°
2026-05-05 15:58 51.47088 -0.46724 90 ft 8 kts 179°
2026-05-05 15:58 51.47029 -0.46695 94 ft 10 kts 147°
2026-05-05 15:59 51.46971 -0.46634 94 ft 10 kts 147°
2026-05-05 15:59 51.46914 -0.46574 95 ft 10 kts 147°
2026-05-05 15:59 51.46857 -0.46514 94 ft 10 kts 147°
2026-05-05 15:59 51.46800 -0.46450 94 ft 10 kts 149°
2026-05-05 16:00 51.46751 -0.46495 94 ft 10 kts 262°
2026-05-05 16:00 51.46748 -0.46606 94 ft 10 kts 268°
2026-05-05 16:00 51.46746 -0.46717 94 ft 10 kts 269°
2026-05-05 16:00 51.46746 -0.46827 94 ft 10 kts 270°
2026-05-05 16:01 51.46745 -0.46938 94 ft 10 kts 270°
2026-05-05 16:01 51.46745 -0.47049 94 ft 10 kts 270°
2026-05-05 16:01 51.46745 -0.47159 94 ft 10 kts 270°
2026-05-05 16:01 51.46746 -0.47270 94 ft 10 kts 270°
2026-05-05 16:02 51.46746 -0.47381 94 ft 10 kts 270°
2026-05-05 16:02 51.46746 -0.47491 94 ft 10 kts 269°
2026-05-05 16:02 51.46745 -0.47602 94 ft 10 kts 269°
2026-05-05 16:02 51.46744 -0.47712 92 ft 10 kts 269°
2026-05-05 16:03 51.46743 -0.47823 92 ft 10 kts 269°
2026-05-05 16:03 51.46743 -0.47934 91 ft 10 kts 269°
2026-05-05 16:03 51.46742 -0.48044 90 ft 10 kts 269°
2026-05-05 16:03 51.46742 -0.48153 90 ft 10 kts 270°
2026-05-05 16:04 51.46741 -0.48265 91 ft 10 kts 270°
2026-05-05 16:04 51.46741 -0.48377 91 ft 10 kts 270°
2026-05-05 16:04 51.46741 -0.48489 90 ft 10 kts 270°
2026-05-05 16:04 51.46741 -0.48603 90 ft 10 kts 270°
2026-05-05 16:05 51.46731 -0.48716 94 ft 10 kts 238°
2026-05-05 16:05 51.46668 -0.48746 93 ft 9 kts 181°
2026-05-05 16:05 51.46607 -0.48765 94 ft 10 kts 196°
2026-05-05 16:05 51.46539 -0.48786 92 ft 10 kts 175°
2026-05-05 16:06 51.46486 -0.48724 95 ft 10 kts 117°
2026-05-05 16:06 51.46480 -0.48649 93 ft 4 kts 89°
2026-05-05 16:06 51.46480 -0.48642 92 ft 0 kts 89°
2026-05-05 16:07 51.46480 -0.48634 92 ft 7 kts 89°
2026-05-05 16:07 51.46482 -0.48302 92 ft 62 kts 89°
2026-05-05 16:08 51.46484 -0.47207 95 ft 131 kts 90°
2026-05-05 16:08 51.46492 -0.45456 177 ft 172 kts 87°
2026-05-05 16:08 51.46499 -0.43478 760 ft 184 kts 87°
2026-05-05 16:08 51.46384 -0.41443 1573 ft 187 kts 107°
2026-05-05 16:09 51.45589 -0.39766 2087 ft 201 kts 142°
2026-05-05 16:09 51.44280 -0.38936 2374 ft 210 kts 172°
2026-05-05 16:09 51.42801 -0.39337 2561 ft 221 kts 207°
2026-05-05 16:09 51.41714 -0.41000 2958 ft 214 kts 234°
2026-05-05 16:10 51.40759 -0.42836 3336 ft 218 kts 229°
2026-05-05 16:10 51.39736 -0.44701 3678 ft 225 kts 229°
2026-05-05 16:10 51.38730 -0.46550 4331 ft 214 kts 232°
2026-05-05 16:10 51.37811 -0.48383 4804 ft 212 kts 231°
2026-05-05 16:11 51.36810 -0.50227 4954 ft 227 kts 229°
2026-05-05 16:11 51.33356 -0.56475 5605 ft 270 kts 230°
2026-05-05 16:12 51.32116 -0.58770 6119 ft 272 kts 235°
2026-05-05 16:12 51.31757 -0.64453 6963 ft 270 kts 302°
2026-05-05 16:13 51.34644 -0.72336 8281 ft 279 kts 297°
2026-05-05 16:13 51.35508 -0.75117 8826 ft 281 kts 297°
2026-05-05 16:13 51.36366 -0.77942 9339 ft 284 kts 296°
2026-05-05 16:14 51.38069 -0.83660 10199 ft 294 kts 296°
2026-05-05 16:14 51.39925 -0.89972 10478 ft 332 kts 296°
2026-05-05 16:15 51.41978 -0.97012 11180 ft 359 kts 296°
2026-05-05 16:15 51.44121 -1.04403 12602 ft 370 kts 295°
2026-05-05 16:16 51.46294 -1.11911 14190 ft 378 kts 296°
2026-05-05 16:16 51.48608 -1.19570 15672 ft 386 kts 301°
2026-05-05 16:17 51.51984 -1.26358 17110 ft 394 kts 316°
2026-05-05 16:17 51.54021 -1.29345 17798 ft 399 kts 317°
2026-05-05 16:18 51.58119 -1.35436 19178 ft 406 kts 315°
2026-05-05 16:18 51.60063 -1.38758 19882 ft 408 kts 308°
2026-05-05 16:18 51.63178 -1.46449 21268 ft 413 kts 296°
2026-05-05 16:19 51.64503 -1.50581 21892 ft 417 kts 296°
2026-05-05 16:19 51.65848 -1.54742 22522 ft 421 kts 296°
2026-05-05 16:19 51.68600 -1.63152 23770 ft 427 kts 295°
2026-05-05 16:20 51.70573 -1.72204 24750 ft 431 kts 282°
2026-05-05 16:20 51.71390 -1.81814 25719 ft 435 kts 275°
2026-05-05 16:21 51.72462 -1.91470 26639 ft 442 kts 282°
2026-05-05 16:22 51.74684 -2.05926 27976 ft 448 kts 282°
2026-05-05 16:22 51.76152 -2.15783 28676 ft 454 kts 281°
2026-05-05 16:23 51.77615 -2.25752 29418 ft 458 kts 281°
2026-05-05 16:23 51.78348 -2.30770 29761 ft 460 kts 281°
2026-05-05 16:23 51.79813 -2.40842 30298 ft 464 kts 281°
2026-05-05 16:24 51.80543 -2.45875 30496 ft 466 kts 281°
2026-05-05 16:24 51.81290 -2.51047 30726 ft 468 kts 281°
2026-05-05 16:24 51.82726 -2.61232 31318 ft 467 kts 281°
2026-05-05 16:25 51.83418 -2.66359 31600 ft 467 kts 281°
2026-05-05 16:25 51.84788 -2.76646 32146 ft 467 kts 281°
2026-05-05 16:25 51.85472 -2.81785 32459 ft 467 kts 281°
2026-05-05 16:26 51.86841 -2.92083 32971 ft 468 kts 281°
2026-05-05 16:26 51.88195 -3.02314 33557 ft 467 kts 281°
2026-05-05 16:27 51.88871 -3.07449 33844 ft 467 kts 282°
2026-05-05 16:27 51.89550 -3.12620 33912 ft 471 kts 282°
2026-05-05 16:27 51.90907 -3.23032 33995 ft 473 kts 282°
2026-05-05 16:28 51.92024 -3.31655 33994 ft 468 kts 282°
2026-05-05 16:28 51.93350 -3.41960 33982 ft 466 kts 282°
2026-05-05 16:29 51.94761 -3.52249 34002 ft 469 kts 287°
2026-05-05 16:29 51.97186 -3.62061 34000 ft 471 kts 298°
2026-05-05 16:30 52.00247 -3.71463 34017 ft 472 kts 299°
2026-05-05 16:30 52.03294 -3.80851 34004 ft 472 kts 299°
2026-05-05 16:31 52.06330 -3.90330 34005 ft 471 kts 298°
2026-05-05 16:31 52.09327 -3.99783 34001 ft 469 kts 298°
2026-05-05 16:32 52.12299 -4.09210 34007 ft 467 kts 298°
2026-05-05 16:32 52.15261 -4.18622 34026 ft 469 kts 298°
2026-05-05 16:33 52.18232 -4.28106 34026 ft 471 kts 298°
2026-05-05 16:33 52.21204 -4.37630 34030 ft 472 kts 297°
2026-05-05 16:34 52.24131 -4.47046 34028 ft 463 kts 296°
2026-05-05 16:34 52.27036 -4.56427 34033 ft 464 kts 296°
2026-05-05 16:35 52.29943 -4.65850 34043 ft 463 kts 296°
2026-05-05 16:35 52.32814 -4.75196 34037 ft 458 kts 296°
2026-05-05 16:36 52.35657 -4.84485 34034 ft 461 kts 296°
2026-05-05 16:36 52.38556 -4.93993 34049 ft 466 kts 296°
2026-05-05 16:37 52.41422 -5.03428 34039 ft 464 kts 295°
2026-05-05 16:37 52.44284 -5.12886 34050 ft 462 kts 295°
2026-05-05 16:38 52.47134 -5.22348 34049 ft 462 kts 295°
2026-05-05 16:38 52.49972 -5.31804 34050 ft 462 kts 295°
2026-05-05 16:39 52.52807 -5.41286 34058 ft 463 kts 295°
2026-05-05 16:39 52.55609 -5.50824 34053 ft 463 kts 292°
2026-05-05 16:40 52.57852 -5.60723 34060 ft 463 kts 288°
2026-05-05 16:40 52.59954 -5.70681 34056 ft 463 kts 288°
2026-05-05 16:41 52.62085 -5.80699 34056 ft 463 kts 288°
2026-05-05 16:41 52.64233 -5.90701 34063 ft 463 kts 288°
2026-05-05 16:42 52.66375 -6.00682 34059 ft 462 kts 288°
2026-05-05 16:42 52.68506 -6.10660 34060 ft 461 kts 289°
2026-05-05 16:43 52.70625 -6.20637 34062 ft 461 kts 289°
2026-05-05 16:43 52.72732 -6.30610 34064 ft 461 kts 288°
2026-05-05 16:44 52.74820 -6.40540 34071 ft 461 kts 288°
2026-05-05 16:44 52.76913 -6.50549 34058 ft 461 kts 288°
2026-05-05 16:45 52.79001 -6.60574 34064 ft 461 kts 288°
2026-05-05 16:45 52.81083 -6.70627 34058 ft 461 kts 288°
2026-05-05 16:46 52.83139 -6.80601 34068 ft 460 kts 288°
2026-05-05 16:46 52.85193 -6.90623 34056 ft 459 kts 288°
2026-05-05 16:47 52.87239 -7.00646 34059 ft 459 kts 288°
2026-05-05 16:47 52.89268 -7.10647 34047 ft 458 kts 288°
2026-05-05 16:48 52.91278 -7.20598 34060 ft 458 kts 288°
2026-05-05 16:48 52.93291 -7.30617 34064 ft 458 kts 288°
2026-05-05 16:49 52.95297 -7.40652 34063 ft 459 kts 288°
2026-05-05 16:49 52.97300 -7.50717 34061 ft 459 kts 288°
2026-05-05 16:50 52.99283 -7.60795 34062 ft 459 kts 287°
2026-05-05 16:50 53.01049 -7.70964 34074 ft 458 kts 284°
2026-05-05 16:51 53.02729 -7.81172 34068 ft 458 kts 284°
2026-05-05 16:51 53.04414 -7.91354 34062 ft 457 kts 285°
2026-05-05 16:52 53.06100 -8.01462 34069 ft 456 kts 285°
2026-05-05 16:52 53.07796 -8.11642 34081 ft 458 kts 285°
2026-05-05 16:53 53.08647 -8.16767 34246 ft 460 kts 284°
2026-05-05 16:53 53.09494 -8.21884 34569 ft 457 kts 284°
2026-05-05 16:53 53.10336 -8.26990 34827 ft 456 kts 284°
2026-05-05 16:53 53.11174 -8.32087 35022 ft 457 kts 284°
2026-05-05 16:54 53.12012 -8.37196 35221 ft 458 kts 284°
2026-05-05 16:54 53.12847 -8.42311 35445 ft 458 kts 284°
2026-05-05 16:54 53.13682 -8.47434 35665 ft 458 kts 284°
2026-05-05 16:54 53.14514 -8.52557 35867 ft 458 kts 284°
2026-05-05 16:55 53.15345 -8.57687 35992 ft 460 kts 284°
2026-05-05 16:55 53.16177 -8.62845 36054 ft 461 kts 284°
2026-05-05 16:55 53.17834 -8.73160 36075 ft 459 kts 284°
2026-05-05 16:56 53.19458 -8.83330 36090 ft 455 kts 284°
2026-05-05 16:56 53.21076 -8.93518 36093 ft 454 kts 284°
2026-05-05 16:57 53.22683 -9.03704 36105 ft 455 kts 284°
2026-05-05 16:57 53.24288 -9.13945 36103 ft 456 kts 284°
2026-05-05 16:58 53.25882 -9.24175 36099 ft 458 kts 284°
2026-05-05 16:58 53.27477 -9.34479 36098 ft 458 kts 284°
2026-05-05 16:59 53.29066 -9.44802 36097 ft 458 kts 284°
2026-05-05 16:59 53.30642 -9.55117 36096 ft 458 kts 284°
2026-05-05 17:00 53.32209 -9.65428 36100 ft 457 kts 284°
2026-05-05 17:00 53.33764 -9.75728 36106 ft 456 kts 284°
2026-05-05 17:01 53.35307 -9.86023 36110 ft 455 kts 284°
2026-05-05 17:01 53.36840 -9.96312 36112 ft 455 kts 283°
2026-05-05 17:02 53.38362 -10.06594 36114 ft 454 kts 283°
2026-05-05 17:02 53.39863 -10.16797 36120 ft 454 kts 283°
2026-05-05 17:03 53.41364 -10.27071 36123 ft 454 kts 283°
2026-05-05 17:03 53.42857 -10.37360 36121 ft 454 kts 283°
2026-05-05 17:04 53.44344 -10.47671 36127 ft 454 kts 283°
2026-05-05 17:04 53.45821 -10.57982 36130 ft 454 kts 283°
2026-05-05 17:05 53.47288 -10.68296 36126 ft 455 kts 283°
2026-05-05 17:05 53.48738 -10.78559 36132 ft 455 kts 283°
2026-05-05 17:06 53.50192 -10.88914 36146 ft 455 kts 283°
2026-05-05 17:06 53.51633 -10.99253 36135 ft 454 kts 283°
2026-05-05 17:07 53.53064 -11.09591 36137 ft 454 kts 283°
2026-05-05 17:07 53.54485 -11.19930 36139 ft 453 kts 282°
2026-05-05 17:08 53.55895 -11.30254 36141 ft 453 kts 282°
2026-05-05 17:08 53.57297 -11.40599 36142 ft 453 kts 282°
2026-05-05 17:09 53.58690 -11.50941 36138 ft 453 kts 282°
2026-05-05 17:09 53.60074 -11.61295 36149 ft 453 kts 282°
2026-05-05 17:10 53.61441 -11.71596 36150 ft 453 kts 282°
2026-05-05 17:10 53.62809 -11.81978 36150 ft 453 kts 282°
2026-05-05 17:11 53.64167 -11.92357 36152 ft 454 kts 282°
2026-05-05 17:11 53.65516 -12.02747 36161 ft 454 kts 282°
2026-05-05 17:12 53.66855 -12.13133 36151 ft 453 kts 282°
2026-05-05 17:12 53.68179 -12.23474 36158 ft 453 kts 282°
2026-05-05 17:13 53.69498 -12.33860 36158 ft 452 kts 282°
2026-05-05 17:13 53.70809 -12.44256 36160 ft 452 kts 281°
2026-05-05 17:14 53.71891 -12.52892 36160 ft 452 kts 281°
2026-05-05 17:14 53.73185 -12.63302 36159 ft 452 kts 281°
2026-05-05 17:15 53.74469 -12.73703 36168 ft 452 kts 281°
2026-05-05 17:15 53.75952 -12.85816 36169 ft 453 kts 281°
2026-05-05 17:16 53.77012 -12.94545 36170 ft 453 kts 281°
2026-05-05 17:16 53.78272 -13.04988 36168 ft 453 kts 281°
2026-05-05 17:17 53.79515 -13.15374 36177 ft 453 kts 281°
2026-05-05 17:17 53.80755 -13.25824 36168 ft 453 kts 281°
2026-05-05 17:18 53.81986 -13.36275 36172 ft 453 kts 281°
2026-05-05 17:18 53.83208 -13.46733 36172 ft 452 kts 281°
2026-05-05 17:19 53.84421 -13.57195 36176 ft 452 kts 281°
2026-05-05 17:19 53.85624 -13.67660 36174 ft 452 kts 281°
2026-05-05 17:20 53.86817 -13.78120 36169 ft 452 kts 280°
2026-05-05 17:20 53.87995 -13.88532 36176 ft 453 kts 280°
2026-05-05 17:21 53.89172 -13.99026 36180 ft 453 kts 280°
2026-05-05 17:22 53.90921 -14.14777 36180 ft 453 kts 280°
2026-05-05 17:22 53.92075 -14.25292 36185 ft 454 kts 280°
2026-05-05 17:23 53.93224 -14.35836 36172 ft 454 kts 280°
2026-05-05 17:23 53.94364 -14.46396 36185 ft 454 kts 280°
2026-05-05 17:24 53.95489 -14.56902 36183 ft 455 kts 280°
2026-05-05 17:24 53.96611 -14.67483 36184 ft 455 kts 280°
2026-05-05 17:25 53.97726 -14.78085 36183 ft 455 kts 280°
2026-05-05 17:25 53.98833 -14.88685 36184 ft 455 kts 280°
2026-05-05 17:26 53.99902 -14.99292 36190 ft 455 kts 277°
2026-05-05 17:26 54.00265 -15.10033 36196 ft 456 kts 272°
2026-05-05 17:27 54.00434 -15.20809 36190 ft 456 kts 272°
2026-05-05 17:27 54.00613 -15.31611 36188 ft 457 kts 272°
2026-05-05 17:28 54.00799 -15.42416 36193 ft 457 kts 272°
2026-05-05 17:28 54.00980 -15.53154 36197 ft 458 kts 272°
2026-05-05 17:29 54.01154 -15.63991 36195 ft 459 kts 272°
2026-05-05 17:29 54.01317 -15.74851 36193 ft 459 kts 272°
2026-05-05 17:30 54.01470 -15.85726 36191 ft 460 kts 272°
2026-05-05 17:30 54.01613 -15.96590 36194 ft 460 kts 272°
2026-05-05 17:31 54.01746 -16.07414 36190 ft 460 kts 272°
2026-05-05 17:31 54.01870 -16.18297 36197 ft 460 kts 271°
2026-05-05 17:32 54.01985 -16.29204 36194 ft 461 kts 271°
2026-05-05 17:32 54.02089 -16.40107 36194 ft 461 kts 271°
2026-05-05 17:33 54.02184 -16.51011 36189 ft 461 kts 271°
2026-05-05 17:33 54.02268 -16.61925 36197 ft 461 kts 271°
2026-05-05 17:34 54.02343 -16.72746 36198 ft 461 kts 271°
2026-05-05 17:34 54.02408 -16.83630 36195 ft 461 kts 271°
2026-05-05 17:35 54.02463 -16.94527 36197 ft 461 kts 271°
2026-05-05 17:35 54.02508 -17.05439 36195 ft 461 kts 271°
2026-05-05 17:36 54.02543 -17.16353 36195 ft 461 kts 271°
2026-05-05 17:36 54.02569 -17.27221 36203 ft 463 kts 271°
2026-05-05 17:37 54.02585 -17.38182 36205 ft 464 kts 271°
2026-05-05 17:37 54.02591 -17.49186 36204 ft 465 kts 271°
2026-05-05 17:38 54.02586 -17.60207 36201 ft 465 kts 271°
2026-05-05 17:38 54.02572 -17.71149 36194 ft 466 kts 271°
2026-05-05 17:39 54.02548 -17.82172 36204 ft 466 kts 271°
2026-05-05 17:39 54.02513 -17.93199 36202 ft 466 kts 271°
2026-05-05 17:40 54.02469 -18.04242 36205 ft 466 kts 270°
2026-05-05 17:40 54.02414 -18.15289 36203 ft 466 kts 270°
2026-05-05 17:41 54.02349 -18.26314 36197 ft 467 kts 271°
2026-05-05 17:41 54.02274 -18.37332 36205 ft 467 kts 270°
2026-05-05 17:42 54.02190 -18.48312 36207 ft 468 kts 270°
2026-05-05 17:42 54.02095 -18.59377 36209 ft 468 kts 270°
2026-05-05 17:43 54.01989 -18.70452 36209 ft 468 kts 270°
2026-05-05 17:43 54.01873 -18.81526 36202 ft 468 kts 270°
2026-05-05 17:44 54.01748 -18.92563 36213 ft 469 kts 270°
2026-05-05 17:44 54.01611 -19.03669 36208 ft 469 kts 270°
2026-05-05 17:45 54.01465 -19.14764 36211 ft 470 kts 270°
2026-05-05 17:45 54.01308 -19.25881 36208 ft 470 kts 270°
2026-05-05 17:46 54.01140 -19.36988 36211 ft 470 kts 270°
2026-05-05 17:46 54.00963 -19.48082 36212 ft 470 kts 270°
2026-05-05 17:47 54.00777 -19.59115 36216 ft 470 kts 270°
2026-05-05 17:47 54.00579 -19.70233 36217 ft 470 kts 270°
2026-05-05 17:48 54.00371 -19.81354 36219 ft 470 kts 270°
2026-05-05 17:48 54.00155 -19.92469 36209 ft 470 kts 270°
2026-05-05 17:49 54.00078 -20.03577 36218 ft 469 kts 276°
2026-05-05 17:49 54.00542 -20.14551 36212 ft 469 kts 276°
2026-05-05 17:50 54.01019 -20.25623 36228 ft 469 kts 276°
2026-05-05 17:50 54.01467 -20.36699 36227 ft 469 kts 276°
2026-05-05 17:51 54.01891 -20.47776 36219 ft 470 kts 276°
2026-05-05 17:51 54.02301 -20.58873 36224 ft 470 kts 276°
2026-05-05 17:52 54.02703 -20.69969 36227 ft 470 kts 276°
2026-05-05 17:52 54.03092 -20.81009 36226 ft 470 kts 276°
2026-05-05 17:53 54.03474 -20.92126 36231 ft 470 kts 276°
2026-05-05 17:53 54.03845 -21.03243 36210 ft 470 kts 276°
2026-05-05 17:54 54.04206 -21.14352 36229 ft 470 kts 276°
2026-05-05 17:54 54.04558 -21.25467 36231 ft 471 kts 276°